Date,TemperatureHighF,TemperatureAvgF,TemperatureLowF,DewpointHighF,DewpointAvgF,DewpointLowF,HumidityHigh,HumidityAvg,HumidityLow,PressureMaxIn,PressureMinIn,WindSpeedMaxMPH,WindSpeedAvgMPH,GustSpeedMaxMPH,PrecipitationSumIn
2013-1-1,78.5,69.1,61.4,60.8,57.9,50.1,87,69,39,30.11,30.02,16,5,16,0.00
2013-1-2,75.2,68.9,63.0,60.7,57.4,53.0,79,67,51,30.15,30.05,8,3,8,0.00
2013-1-3,79.2,70.0,62.5,63.2,57.9,51.0,81,67,38,30.12,30.04,13,4,13,0.00
2013-1-4,73.8,67.4,63.0,61.0,55.0,48.4,82,66,47,30.15,30.03,15,6,15,0.00
2013-1-5,71.3,65.8,59.4,58.8,52.6,44.6,76,63,45,30.05,29.91,9,4,9,0.00
2013-1-6,74.2,70.4,66.6,65.2,62.2,58.8,82,75,63,29.99,29.85,16,6,16,0.00
2013-1-7,81.4,73.5,68.9,65.1,59.2,49.3,82,62,35,29.94,29.81,15,5,15,0.00
2013-1-8,78.3,72.3,68.4,61.0,55.9,36.9,71,57,24,30.04,29.90,14,4,14,0.00
2013-1-9,76.0,71.7,67.5,68.4,63.2,56.8,84,75,65,30.00,29.86,10,5,10,0.00
2013-1-10,80.5,71.9,64.1,67.3,60.5,50.0,88,69,44,30.06,29.82,27,8,27,0.00
2013-1-11,65.9,61.7,56.9,50.3,42.2,37.5,61,49,38,30.27,30.05,28,14,28,0.00
2013-1-12,66.1,59.2,54.2,46.4,43.8,40.2,66,57,44,30.31,30.21,24,12,24,0.00
2013-1-13,66.8,59.5,53.5,49.3,46.8,43.9,74,63,51,30.23,30.11,18,8,18,0.00
2013-1-14,68.8,61.3,56.3,49.2,45.8,37.5,68,57,44,30.19,30.08,22,10,22,0.00
2013-1-15,65.3,59.2,54.9,50.0,46.6,41.6,72,63,53,30.20,30.10,26,12,26,0.00
2013-1-16,65.9,59.1,53.8,51.3,45.4,37.1,76,61,46,30.22,30.13,21,11,21,0.00
2013-1-17,71.5,61.9,53.6,51.1,46.5,39.3,81,59,33,30.30,30.18,14,5,14,0.00
2013-1-18,68.6,62.3,55.8,50.8,46.5,41.4,65,56,41,30.25,30.11,11,3,11,0.00
2013-1-19,69.3,63.3,56.3,54.5,51.1,48.0,75,65,51,30.22,30.12,10,3,10,0.00
2013-1-20,69.8,64.1,56.9,59.5,55.7,50.0,82,74,60,30.16,30.06,10,3,10,0.00
2013-1-21,72.9,66.6,61.6,61.2,55.9,47.6,86,70,43,30.17,30.04,10,2,10,0.00
2013-1-22,77.8,67.7,59.6,58.9,54.9,50.0,79,65,42,30.17,30.07,12,4,12,0.00
2013-1-23,71.6,65.2,58.7,60.3,57.6,54.8,87,77,61,30.20,30.10,8,3,8,0.00
2013-1-24,73.3,66.4,59.0,60.5,56.5,48.0,87,72,42,30.12,30.03,10,4,10,0.00
2013-1-25,72.7,67.9,62.3,61.7,56.5,47.2,80,67,45,30.13,30.01,10,4,10,0.00
2013-1-26,74.0,68.6,63.4,64.2,60.2,54.4,82,75,58,30.11,30.03,9,3,9,0.00
2013-1-27,78.3,69.6,63.7,64.4,59.7,50.5,81,72,40,30.10,29.99,11,3,11,0.00
2013-1-28,77.2,69.9,64.1,64.4,59.0,46.5,84,70,37,30.05,29.88,10,3,10,0.00
2013-1-29,75.1,71.0,68.0,64.7,60.8,53.7,88,71,49,29.92,29.79,16,5,16,0.00
2013-1-30,73.4,68.5,64.8,58.0,54.7,51.4,69,62,50,29.99,29.88,17,7,17,0.00
2013-1-31,72.5,68.1,62.8,65.4,60.6,54.4,86,77,70,29.94,29.81,16,4,16,0.00